STARLINK-6130, 57104

Orbit data source: Space-Track

STARLINK-6130, 57104 is a payload satellite owned by SpaceX/Seattle (US) in LEO that was launched on Fri, 23 Jun 2023 UTC via an FALCON 9 launch vehicle from the Air Force Eastern Test Range (AFETR). Payload-class satellites include a variety of spacecraft equipped with specific instruments for various scientific and technological missions. These include communications satellites like Starlink; space stations such as the ISS; scientific satellites like the Hubble; Earth observation satellites from companies like Planet Labs, Umbra, and HawkEye 360; GPS; miniature CubeSats for education and research; and military/defense satellites.

Loading next visibility...
Identifier
57104, 2023-090D
Orbit
LEO
Country
Flag of USUS
Related business
Manufacturer
SpaceX/Seattle
Mission
Operational Commercial Communications
Bus & Motor
STARLINK, Unknown motor
Mass
305 kg wet, ~290 kg dry
Launch date (UTC)
2023-06-23 (3 years ago)
Launch vehicle
FALCON 9
Launch site
Air Force Eastern Test Range (AFETR)
Object type
Payload
Rocket body
Debris
Shape & HBR
Box + 1 Pan, 10.1 m
Radar Cross Section
11.087 m², Large (>1 m²)

Expand to show TLE details & history
Last TLE update: 4 days ago

TLE from 4 days ago
0 STARLINK-6130
1 57104U 23090D   26170.05553684  .00000528  00000-0  28731-4 0  9993
2 57104  43.0058  69.2141 0001470 266.8373  93.2311 15.27577675165822
Epoch: 2026-06-19T01:19Z
TLE epoch observation values (Epoch: 2026-06-19T01:19:58.382Z)
Latitude
-0.00001°
Longitude
141.93083°
Altitude
482.889 km
Speed
7.626 km/s
True Right ascension
04h 36m 51s
True Declination
0° 00' 00"
Sunlit
Object was in daylight at epoch
Visualization orbit readout
Latitude
Unknown
Longitude
Unknown
Altitude
Unknown
Speed
Unknown
Apparent Right ascension
Unknown
Apparent Declination
Unknown
Sunlit
N/A
Visualization observer readout
Local Sidereal Time
00:29:12
Azimuth
Unknown
Elevation
Unknown
Doppler factor
Unknown
Orbital elements
Apogee altitude
486.009 km
Perigee altitude
483.991 km
Semi-major axis
6,863.137 km
Eccentricity
0.00015
Inclination
43.0058°
RAAN
69.2141°
Arg. of periapsis
266.8373°
True anomaly
93.24792°
Mean anomaly
93.2311°
Eccentric anomaly
93.23951°
Mean motion
3.81733 °/min
Orbital period
94.31 mins
BSTAR
0.000028731
Loading maneuver chart data...
Computing Atmospheric mass density...
Loading historical data...
Loading historical data...
Loading historical data...
Loading historical data...
Loading historical data...
Loading historical data...
Loading historical data...

Documentation

Showing up to 5 results
|